Regional Weather Roundup
Issued by NWS

Home | Current Version | Previous Version | Text Only | Print | Product List | Glossary Off
Versions: 1 2 3 4 5 6 7 8 9 10 11 12 13 14 15 16 17 18 19 20 21 22 23 24 25 26 27 28 29 30 31 32 33 34 35 36 37 38 39 40 41 42 43 44 45 46 47 48 49 50

000
ASUS43 KFSD 251602
RWRSD

WEATHER ROUNDUP FOR SOUTH DAKOTA
NATIONAL WEATHER SERVICE SIOUX FALLS SD
1100 AM CDT SUN SEP 25 2016

NOTE: "FAIR" INDICATES FEW OR NO CLOUDS BELOW 12,000 FEET WITH NO
SIGNIFICANT WEATHER AND/OR OBSTRUCTIONS TO VISIBILITY.


SDZ001>005-009-010-012>017-251700-
NORTHWEST AND NORTH CENTRAL SOUTH DAKOTA

CITY           SKY/WX    TMP DP  RH WIND       PRES   REMARKS
BUFFALO          N/A     54  38  54 NW26G37   30.22R
FAITH            N/A     56  38  50 NW32G41   30.22R
MOBRIDGE       SUNNY     59  41  51 NW26G38   30.07R
$$

SDZ012>016-024>037-041>051-057-063-072>074-251700-
SOUTHWEST AND SOUTH CENTRAL SOUTH DAKOTA

CITY           SKY/WX    TMP DP  RH WIND       PRES   REMARKS
RAPID CTY ARPT SUNNY     56  31  38 NW29G40   30.32R
PIERRE         SUNNY     61  40  45 NW31G44   30.13R
CUSTER         SUNNY     47  24  40 NW8G20    30.37R
ELLSWORTH AFB  SUNNY     56  32  40 NW25G36   30.31R
PHILIP         SUNNY     60  37  42 NW30G43   30.25R
PINE RIDGE     SUNNY     58  30  34 NW20G31   30.35R
WINNER           N/A     62  40  44 NW29G40   30.19R
$$

SDZ004>011-016>023-039-040-251700-
NORTHEAST SOUTH DAKOTA

CITY           SKY/WX    TMP DP  RH WIND       PRES   REMARKS
ABERDEEN       CLOUDY    58  47  66 NW23G32   29.97R
WATERTOWN      CLOUDY    57  49  74 W20G32    29.96R
SISSETON         N/A     61  50  67 NW24G39   29.86R
$$

SDZ017-020-022-023-036>040-048>070-251700-
SOUTHEAST SOUTH DAKOTA

CITY           SKY/WX    TMP DP  RH WIND       PRES   REMARKS
SIOUX FALLS    CLOUDY    59  49  69 W15G28    30.03R
HURON          CLOUDY    59  47  64 NW21G32   30.04R
CHAMBERLAIN    MOSUNNY   64  45  50 NW26G37   30.14R
MITCHELL       CLOUDY    59  46  62 NW22G32   30.09R
YANKTON        CLOUDY   N/A N/A N/A W28G37    30.08R
$$

ABBREVIATIONS USED IN REMARKS
   TC - TEMPERATURE IN CELSIUS
  WCI - WIND CHILL INDEX
   HX - HEAT INDEX
  VSB - VISIBILITY





USA.gov is the U.S. government's official web portal to all federal, state and local government web resources and services.